Regional Weather Roundup
Issued by NWS

Home | Current Version | Previous Version | Graphics & Text | Print | Product List | Glossary On
Versions: 1 2 3 4 5 6 7 8 9 10 11 12 13 14 15 16 17 18 19 20 21 22 23 24 25 26 27 28 29 30 31 32 33 34 35 36 37 38 39 40 41 42 43 44 45 46 47 48 49 50
478
ASUS43 KLOT 201703
RWRIL

ILLINOIS REGIONAL WEATHER ROUNDUP
NATIONAL WEATHER SERVICE CHICAGO/ROMEOVILLE IL
1100 AM CST MON FEB 20 2017

NOTE: "FAIR" INDICATES FEW OR NO CLOUDS BELOW 12,000 FEET WITH NO
SIGNIFICANT WEATHER AND/OR OBSTRUCTIONS TO VISIBILITY.

* THESE STATIONS ARE NOT UNDER NWS QUALITY CONTROL. THEY ALSO MAY NOT
  REPORT WEATHER SUCH AS PRECIPITATION OR FOG.

ILZ001-002-007-009-015-016-024-201800-
NORTHWEST ILLINOIS

CITY           SKY/WX    TMP DP  RH WIND       PRES   REMARKS
MOLINE         CLOUDY    60  50  69 SE14      29.96F
STERLING*      CLOUDY    58  51  78 SE13      30.01F
SAVANNA*       CLOUDY    56  49  77 SE12G18   29.99F
$$

ILZ003-004-008-010-011-017-018-201800-
NORTH CENTRAL ILLINOIS

CITY           SKY/WX    TMP DP  RH WIND       PRES   REMARKS
ROCKFORD       CLOUDY    59  48  67 S15       30.06F
FREEPORT*      MOSUNNY   56  49  74 SE17      30.02F
ROCHELLE*      MOSUNNY   58  51  78 SE24      30.04F
DE KALB*       PTSUNNY   57  49  74 SE17G23   30.07F
PERU*          PTSUNNY   60  50  69 SE18      30.05F
$$

ILZ005-006-012>014-019>023-201800-
NORTHEAST ILLINOIS

CITY           SKY/WX    TMP DP  RH WIND       PRES   REMARKS
CHICAGO-OHARE  CLOUDY    62  47  57 S17       30.09F
CHICAGO-MIDWAY CLOUDY    62  45  53 SE12      30.10F
AURORA         MOSUNNY   59  48  67 SE15      30.07F
LANSING*       MOSUNNY   60  50  68 S12       30.12F
JOLIET*        CLOUDY    61  51  69 SE12      30.08F
WAUKEGAN       MOSUNNY   49  43  80 SE8       30.09F HAZE
DUPAGE AIRPORT CLOUDY    59  47  64 S15G22    30.07F
KANKAKEE*      MOSUNNY   60  47  61 SE13      30.11F
WHEELING       CLOUDY    59  46  62 S14       30.10F
MORRIS*        CLOUDY    60  49  66 S14       30.06F
ROMEOVILLE*    CLOUDY    59  51  77 SE16      30.09F
NORTHERLY ISL    N/A     47  40  76 CALM        N/A
$$

LMZ740>746-201800-
SOUTHERN LAKE MICHIGAN

STATION/POSITION SKY/WX   TEMP    WIND        PRES    VSBY  WAVE
                          AIR SEA DIR/SP/G                  HT/PER
                          (F)     (DEG/KT/KT) (MB)    (MI)  (FT/S)
HARRISON CRIB              51     160/ 16/ 18   N/A
BURNHAM HARBOR             47     130/  2/  5   N/A
CALUMET HARBOR             58     140/  8/ 11 1019.5F
BURNS HARBOR               60     170/ 10/ 19 1020.7F
MICHIGAN CITY              57     140/ 13/ 17   N/A
$$

ILZ025>027-034>036-040-047-049-050-058-095>099-201800-
WEST-CENTRAL ILLINOIS

CITY           SKY/WX    TMP DP  RH WIND       PRES   REMARKS
QUINCY         MOSUNNY   67  53  61 S14G25    29.95S
GALESBURG*     MOSUNNY   59  52  77 SE14      29.97F
MACOMB*        PTSUNNY   62  53  71 SE16      30.00F
JACKSONVILLE*  PTSUNNY   67  52  59 SE20      30.00F
PITTSFIELD*    MOSUNNY   66  54  64 SE16G23   29.99S
$$

ILZ028>032-037-038-041>044-048-051>054-059>061-201800-
CENTRAL ILLINOIS

CITY           SKY/WX    TMP DP  RH WIND       PRES   REMARKS
PONTIAC        MOSUNNY   64  54  70 SE16G25   30.09F
BLOOMINGTON    MOSUNNY   62  52  69 SE18G26   30.08F
DECATUR        CLOUDY    63  50  62 SE15G23   30.08F
PEORIA         CLOUDY    65  52  62 S15       30.03F
LACON*         PTSUNNY   64  52  64 SE15G26   30.03F
LINCOLN*       CLOUDY    67  54  61 S15G22    30.05F
SPRINGFIELD    MOSUNNY   67  51  56 S16       30.04F
TAYLORVILLE    CLOUDY    64  51  63 SE13G20   30.06F
$$

ILZ033-039-045-046-055>057-062-063-201800-
EAST-CENTRAL ILLINOIS

CITY           SKY/WX    TMP DP  RH WIND       PRES   REMARKS
CHAMPAIGN      MOSUNNY   63  51  65 SE17      30.11F
RANTOUL*       CLOUDY    62  53  71 S17       30.11F
MATTOON        CLOUDY    62  52  69 SE16      30.11F
$$

ILZ079-100>102-201800-
SOUTHWEST ILLINOIS

CITY           SKY/WX    TMP DP  RH WIND       PRES   REMARKS
ALTON            N/A     64  52  63 SE10      30.05F
BELLEVILLE     CLOUDY    70  54  57 E12G18    30.04F
CAHOKIA*       MOSUNNY   68  51  54 S14       30.04F
SPARTA*        CLOUDY    66  53  64 SE8       30.08F
$$

ILZ064>066-069>071-074>076-080>082-084>086-088>090-092>094-201800-
SOUTH-CENTRAL ILLINOIS

CITY           SKY/WX    TMP DP  RH WIND       PRES   REMARKS
CARBONDALE     MOSUNNY   66  53  63 S14       30.09F
CAIRO*         MOSUNNY   66  54  64 S8        30.12S
EFFINGHAM*     MOSUNNY   64  54  68 SE10      30.12F
MARION         CLOUDY    70  54  56 S12       30.12S
MT. VERNON     MOSUNNY   65  53  65 SE12      30.11F
CENTRALIA*     CLOUDY    68  54  61 SE12G18   30.08F
SALEM*         SUNNY     65  51  61 SE7       30.10S
METROPOLIS*    MOSUNNY   64  54  71 CALM      30.13F
$$

ILZ067-068-072-073-078-083-087-091-201800-
SOUTHEAST ILLINOIS

CITY           SKY/WX    TMP DP  RH WIND       PRES   REMARKS
LAWRENCEVILLE  CLOUDY    59  51  75 SE9       30.15F
FLORA*         CLOUDY    65  53  64 S13       30.12F
FAIRFIELD*     CLOUDY    65  53  66 SE8       30.12S
HARRISBURG*    CLOUDY    66  56  71 S8        30.13F
ROBINSON*      MOSUNNY   61  51  70 SE8       30.16F
CARMI*         CLOUDY    64  54  72 SE14      30.13S
$$

ABBREVIATIONS USED IN REMARKS
   TC - TEMPERATURE IN CELSIUS
  WCI - WIND CHILL INDEX
   HX - HEAT INDEX
  VSB - VISIBILITY
$$





USA.gov is the U.S. government's official web portal to all federal, state and local government web resources and services.